Theta_e
317 333 335 335 336 333 334 334 332 334 330 332 335 345 347 348 348 349 347 346 346 345 342 342 340 342 342 343 340 338 336 336 334 332 333 334 334 336 335 337 336 336 335
313 319 327 331 331 331 330 329 329 331 330 329 332 341 346 346 346 346 346 348 349 348 345 344 342 343 342 340 337 338 336 335 332 328 326 324 326 328 329 331 334 333 333
311 315 317 322 323 325 327 327 325 326 326 328 337 341 341 340 338 338 340 341 345 348 347 343 342 339 339 341 337 334 334 332 331 332 328 320 318 321 324 328 329 329 325
307 316 319 321 322 324 325 326 328 331 335 336 332 334 333 331 332 332 335 337 336 337 337 337 336 334 334 337 336 333 331 332 332 331 332 327 325 320 318 321 324 325 327
310 318 325 329 331 330 326 324 325 325 326 327 329 331 327 326 325 325 325 327 331 333 333 331 328 327 335 336 337 333 330 331 332 331 328 325 324 325 321 318 317 316 318
316 325 327 329 325 324 322 322 321 320 322 324 324 323 322 322 322 321 321 321 323 324 326 331 330 331 333 336 337 332 333 335 335 331 331 325 320 318 315 313 314 312 312
324 325 324 324 321 318 318 319 319 316 317 318 319 318 316 316 315 316 316 317 317 318 319 321 321 323 326 328 328 327 329 329 328 327 327 323 321 318 316 313 313 309 310
323 323 322 319 318 316 315 315 314 313 312 313 312 312 313 313 313 313 313 313 314 315 316 317 317 318 320 321 323 324 324 324 325 324 323 323 324 321 319 314 312 304 304
319 319 317 317 315 314 314 314 312 311 311 310 310 309 310 311 310 310 311 311 312 315 314 314 313 314 315 317 316 318 319 321 322 322 321 320 320 321 319 315 312 309 303
313 313 315 314 314 314 313 312 312 310 309 310 309 309 309 310 309 308 308 308 309 309 310 311 311 311 311 311 309 309 311 313 314 318 317 318 320 321 320 320 318 316 313
310 312 312 312 313 312 312 312 311 309 308 308 308 308 308 307 307 306 306 306 306 307 307 309 309 309 309 309 308 308 309 308 308 309 312 313 315 315 316 317 315 313 311
309 308 310 310 310 309 307 307 308 307 307 306 307 307 306 305 304 304 304 304 304 305 307 307 308 308 308 307 306 306 306 306 306 306 307 308 312 307 309 311 311 312 312
307 307 309 309 309 308 306 305 306 305 305 305 305 304 304 303 303 303 303 303 304 304 304 304 305 305 305 305 304 304 304 303 303 304 304 304 304 302 303 304 304 305 309
306 305 305 305 306 306 305 305 305 305 305 305 304 303 302 302 301 301 301 302 302 301 301 301 302 303 302 303 303 302 300 300 301 301 302 303 303 302 302 304 303 303 302
303 302 300 301 302 303 304 305 305 305 305 304 303 303 302 301 300 300 299 299 298 298 298 299 299 299 299 300 299 299 298 297 297 299 300 300 302 306 306 305 301 299 299
304 303 303 303 303 304 305 305 304 303 303 302 301 301 300 299 298 297 296 295 295 295 295 295 295 295 297 298 299 300 295 295 295 294 295 296 299 299 302 304 305 304 299
303 303 303 301 301 302 303 301 301 301 299 298 299 298 297 296 295 295 294 292 291 291 291 291 292 292 292 295 296 297 294 293 293 293 294 294 297 299 299 300 302 303 304
299 297 297 296 297 298 298 298 298 298 297 296 296 295 294 293 292 291 291 290 289 289 288 288 289 290 291 295 295 295 294 294 294 294 294 294 296 297 297 298 300 300 300
296 294 294 294 294 294 294 294 294 294 294 293 292 293 292 290 290 289 288 287 286 286 287 288 291 290 290 294 294 294 293 293 293 294 295 295 295 296 295 297 297 297 298
294 292 292 292 291 291 291 290 290 290 290 291 291 291 290 288 286 286 285 285 285 286 289 290 292 292 292 293 293 293 293 291 292 293 294 296 295 295 294 295 295 295 295
293 292 290 289 289 290 289 288 287 287 290 290 289 288 287 285 285 284 284 285 287 289 289 289 290 290 290 290 293 293 292 291 291 292 293 294 295 294 293 293 295 295 296
289 290 288 287 287 289 287 285 285 288 288 287 286 285 284 284 284 282 286 286 285 287 287 287 287 288 289 292 292 292 292 293 291 291 293 294 294 293 293 293 293 293 294
288 287 286 286 286 286 286 284 284 285 286 284 282 281 282 282 283 283 285 285 286 286 286 286 287 288 289 291 293 292 292 293 292 294 294 294 293 293 293 293 293 293 294
286 286 285 285 284 285 285 284 284 284 283 281 281 281 282 284 285 286 286 285 285 285 286 286 286 287 289 290 292 292 292 293 293 294 294 294 293 293 293 293 294 294 295
285 285 283 283 282 283 283 283 283 283 281 282 283 283 284 284 285 286 286 286 287 287 286 286 287 287 287 289 291 291 291 291 292 292 291 291 290 290 291 291 292 293 294
284 282 282 282 281 282 282 283 283 283 282 282 283 283 284 284 285 285 285 288 289 290 290 289 289 290 290 290 290 290 290 290 290 290 289 288 289 289 290 290 290 292 294
Wind_Speed
6 5 7 8 9 5 4 6 5 8 3 2 2 1 3 4 4 6 5 6 6 7 7 7 5 5 6 8 5 3 5 3 2 1 3 4 1 5 5 4 4 5 4
6 6 6 7 9 11 8 6 6 7 5 2 2 2 2 3 4 2 1 5 6 6 7 7 7 8 6 6 6 6 3 3 4 3 1 3 3 3 2 3 3 5 2
7 5 5 7 5 7 8 7 6 5 5 5 3 4 3 1 3 3 3 4 6 7 8 6 7 6 5 7 5 4 5 2 3 5 4 2 4 2 2 2 3 5 3
6 5 5 5 5 3 4 3 2 3 3 2 2 2 2 2 4 3 4 5 6 7 7 5 4 5 3 6 5 2 3 2 4 1 4 4 4 2 5 2 2 3 5
9 11 7 8 7 6 7 7 8 7 6 8 7 6 8 4 3 3 8 9 8 8 6 6 5 6 4 5 6 4 5 4 5 4 3 2 3 1 4 7 4 2 3
9 12 6 6 6 6 7 9 12 8 10 11 10 11 10 7 6 7 7 5 4 5 9 9 7 5 4 6 6 5 7 7 4 1 4 5 5 4 4 3 5 3 4
16 13 14 11 10 9 7 9 12 8 7 9 9 7 8 8 8 6 5 6 5 4 7 7 9 7 7 6 5 5 5 5 5 4 6 3 4 2 3 2 4 4 3
17 17 13 12 12 10 8 10 12 10 9 8 8 6 8 5 5 5 4 4 4 4 7 6 6 7 7 7 7 5 4 5 4 6 6 3 4 4 4 5 4 2 2
17 16 12 12 10 8 9 11 11 9 9 8 7 7 7 7 6 5 4 2 3 4 7 8 7 8 7 7 7 5 6 6 6 6 5 4 4 3 4 3 3 4 3
13 12 12 11 8 8 7 8 8 9 7 8 6 6 7 6 5 4 4 3 3 3 4 5 6 7 7 7 6 4 5 4 3 4 5 3 3 4 4 4 5 5 9
16 13 8 7 8 7 8 8 7 9 7 7 6 7 6 6 5 4 3 2 2 4 5 6 5 5 6 6 6 6 7 6 5 5 4 5 4 3 4 3 4 6 5
8 7 8 8 8 8 7 7 7 8 6 5 5 5 4 4 4 2 1 3 3 3 4 5 5 5 5 6 6 6 7 7 7 6 5 5 3 5 4 3 4 3 3
7 6 6 7 7 6 6 6 6 7 5 4 4 3 3 2 1 3 4 4 5 5 5 5 5 5 5 6 4 4 5 5 6 5 6 6 6 6 4 4 4 3 2
3 2 3 4 6 5 5 6 6 5 4 4 3 4 3 0 3 4 6 6 6 5 6 5 5 4 5 7 5 4 4 6 6 6 6 7 7 6 7 6 5 4 3
8 7 6 6 5 7 6 6 6 4 2 4 1 4 6 7 6 6 6 6 5 4 4 5 5 6 6 7 6 6 8 7 7 8 9 9 11 18 14 7 7 5 5
10 8 7 7 6 7 6 5 5 3 3 7 7 7 7 5 5 5 4 3 4 5 5 6 7 8 7 11 13 12 7 6 7 9 10 10 17 17 21 22 22 17 10
6 7 8 9 8 7 6 7 7 8 9 7 7 7 7 6 6 5 5 6 7 6 7 9 9 10 10 14 13 15 7 6 9 10 10 10 10 14 11 15 18 19 20
5 6 7 8 9 10 11 8 8 8 8 7 7 7 8 8 7 8 7 6 6 9 9 10 9 9 8 12 11 14 9 8 10 10 10 11 12 10 11 11 9 7 9
7 9 8 8 9 10 8 8 9 7 7 7 6 7 7 8 9 9 10 9 8 9 9 9 10 9 10 13 13 11 8 9 10 10 10 10 11 14 14 10 9 9 10
8 9 8 8 9 7 6 7 6 5 5 6 7 7 6 8 10 9 9 7 8 9 8 10 9 11 12 13 14 12 7 9 8 9 10 14 12 15 14 10 10 9 10
8 6 7 8 6 6 6 7 5 6 6 7 8 8 8 8 8 7 7 9 10 9 9 10 9 10 9 11 13 13 8 8 8 8 8 8 12 12 13 12 9 11 9
10 9 6 6 6 5 5 5 5 6 6 8 9 9 9 8 7 8 8 8 8 8 9 9 10 6 7 10 13 14 15 16 9 9 8 10 14 13 14 12 14 13 12
6 5 5 5 5 6 5 6 6 9 9 9 9 8 9 8 7 7 8 8 7 7 7 7 8 10 8 8 15 16 16 17 11 9 12 19 19 16 11 14 16 13 6
5 4 5 5 5 6 7 6 8 9 9 10 10 9 9 10 9 7 6 7 7 7 7 8 8 9 10 9 9 9 10 15 12 14 10 12 15 15 13 12 10 8 8
4 5 5 5 7 8 7 7 9 9 10 11 11 10 7 9 9 7 7 7 7 8 8 8 8 9 11 11 18 18 12 11 12 14 8 7 6 7 7 7 8 8 8
6 6 6 6 8 9 9 10 10 11 11 10 8 8 7 7 7 8 8 8 12 16 18 18 14 9 14 20 22 22 21 20 17 4 6 7 7 7 7 7 8 8 10
Wind_Direction
166 203 180 158 173 194 203 235 244 250 351 28 313 100 240 239 229 228 231 222 224 227 208 225 220 204 218 234 223 222 236 254 226 348 286 282 332 254 253 267 278 265 246
152 164 206 179 192 197 197 216 232 243 243 256 306 292 328 305 287 333 267 252 237 227 222 218 230 233 230 250 230 213 218 208 182 193 185 300 303 272 322 331 292 281 301
165 159 180 206 199 197 198 205 221 236 274 289 317 303 287 351 332 15 350 313 285 251 241 222 213 218 207 245 257 234 213 248 243 231 169 206 236 280 15 346 297 304 300
163 146 135 121 127 136 138 153 119 64 20 358 168 193 44 34 2 354 351 336 360 347 327 314 322 275 274 259 262 211 206 237 243 278 257 254 161 172 309 281 219 300 274
164 141 152 135 119 105 98 92 92 83 53 60 62 73 73 69 11 14 26 19 15 3 349 346 341 318 310 282 279 245 210 218 214 179 172 276 12 283 177 257 268 20 271
129 124 127 118 108 102 88 87 84 65 63 66 52 64 66 50 46 31 32 7 350 360 8 9 2 341 310 295 288 290 264 253 245 318 216 214 182 187 177 215 249 209 253
140 142 146 147 146 131 124 114 106 95 85 84 89 89 90 79 65 48 38 31 8 353 3 5 7 10 2 351 344 325 310 308 299 265 261 236 223 155 191 160 252 245 298
150 154 154 154 152 151 143 133 130 127 118 112 103 93 81 79 70 58 50 36 21 355 348 360 5 2 4 1 2 353 336 324 303 300 282 300 231 207 189 180 155 267 302
157 153 154 157 154 153 157 151 126 117 113 114 114 106 109 104 109 92 78 59 8 343 356 350 350 351 353 355 354 358 352 348 323 308 299 279 274 242 228 187 163 165 237
146 152 158 162 164 160 155 109 117 128 131 120 120 120 122 121 123 111 82 48 343 333 327 323 329 326 333 334 344 337 319 327 298 298 321 314 282 272 250 255 258 219 237
156 160 155 163 157 143 128 134 142 127 131 138 145 133 136 125 113 93 73 44 337 346 341 329 323 320 318 319 324 317 309 317 309 319 328 318 317 308 293 258 219 234 222
145 142 152 155 147 143 139 145 139 132 143 135 128 121 105 93 88 95 73 37 9 8 4 4 11 360 354 340 335 321 321 319 319 316 321 302 324 320 329 317 301 277 250
128 147 156 165 157 149 125 125 129 117 119 113 100 92 93 101 96 14 15 35 46 39 26 25 21 6 350 338 356 25 359 344 330 335 323 306 314 301 290 269 280 277 287
124 116 76 74 86 103 123 112 99 94 96 107 160 183 201 104 28 42 58 53 37 23 9 355 336 322 317 312 275 294 288 273 278 273 269 274 274 268 270 254 247 242 251
60 72 75 75 81 75 74 82 76 88 160 205 254 358 11 33 45 47 38 26 10 339 312 293 287 279 288 289 287 276 275 257 260 254 263 269 264 271 266 263 257 242 245
72 66 69 79 86 93 96 131 177 209 21 38 39 38 48 44 36 23 2 338 308 288 286 300 301 298 286 292 286 291 287 261 266 275 274 270 276 273 271 265 261 252 236
28 60 56 40 30 24 33 35 35 46 51 48 40 33 22 15 3 338 330 332 325 319 314 308 303 297 290 294 293 294 290 275 272 273 274 278 278 280 276 275 269 260 252
67 55 65 54 33 39 46 49 45 49 50 41 28 17 6 351 337 328 325 318 316 310 303 300 293 285 287 300 314 305 294 282 279 276 271 270 277 278 281 280 265 259 257
82 73 66 61 52 43 33 45 40 37 32 21 1 349 339 327 326 320 317 313 308 306 298 292 298 303 297 300 293 298 295 289 284 280 278 277 279 279 273 270 260 259 255
59 60 50 56 55 32 32 42 30 20 5 348 337 324 319 317 313 308 308 304 299 290 295 299 297 293 302 311 304 297 290 287 285 279 273 271 264 269 271 273 267 262 263
70 70 61 55 40 24 24 24 2 358 336 332 321 319 319 311 304 305 304 303 308 300 305 309 310 305 290 292 292 297 295 291 294 290 288 280 269 268 266 258 262 258 267
46 40 46 42 22 16 24 5 352 322 322 322 320 315 308 307 309 297 306 309 309 313 316 317 311 311 303 295 298 297 295 296 290 282 278 275 274 264 263 267 262 251 258
45 31 37 20 19 4 5 342 318 333 332 325 317 314 314 307 296 300 315 319 320 318 316 314 312 312 313 308 310 305 295 289 286 283 281 282 278 277 276 266 263 261 253
40 21 19 15 6 352 351 333 337 331 327 323 326 323 319 322 321 319 317 311 313 314 310 308 306 305 308 310 311 312 309 303 297 290 284 280 278 274 268 273 266 251 244
34 28 16 6 356 344 343 336 334 332 333 334 328 326 318 319 318 318 313 306 296 292 296 294 292 299 303 304 302 301 305 305 295 300 292 285 277 271 265 264 265 261 255
30 19 8 3 353 347 345 343 338 341 339 328 328 323 320 321 319 316 313 302 290 292 287 281 277 293 289 297 300 304 305 303 302 285 296 295 286 279 277 277 276 266 260